This demonstration page uses our WeatherBlox Daily Observations layout. Learn more.

Left ArrowRight Arrow

39.12711, -84.51439

Hourly Observations for July 20, 2017

Temp ( °F °C ) Dew Point ( °F °C ) Humidity (%) Winds ( mph kmh ) Pressure ( in mb ) Visibility ( mi km ) Precip ( " mm )
12:53 am 00:53 Clear 70 21.1 69 20.6 97 97 N N/A 30.10 1019 10 16 N/A
1:53 am 01:53 Clear 70 21.1 69 20.6 97 97 N N/A 30.10 1019 10 16 N/A
2:53 am 02:53 Clear 68 20 68 20 100 100 N N/A 30.08 1019 8 13 N/A
3:53 am 03:53 Clear 68 20 68 20 100 100 N N/A 30.06 1018 9 14 N/A
4:53 am 04:53 Clear 68 20 68 20 100 100 N N/A 30.06 1018 7 11 N/A
5:53 am 05:53 Clear 68 20 68 20 100 100 N N/A 30.04 1017 8 13 N/A
6:20 am 06:20 Clear with Mist and Fog 66 18.9 66 18.9 100 100 SW 6 9 30.03 1017 2 3 N/A
6:30 am 06:30 Sunny with Mist and Fog 67 19.4 67 19.4 100 100 SSW 6 9 30.03 1017 3 5 N/A
6:53 am 06:53 Sunny with Mist and Fog 68 20 68 20 100 100 S 3 6 30.05 1018 5 8 N/A
7:53 am 07:53 Sunny 71 21.7 70 21.1 96 96 N N/A 30.10 1019 7 11 N/A
8:53 am 08:53 Sunny 75 23.9 72 22.2 90 90 N N/A 30.11 1020 10 16 N/A
9:53 am 09:53 Sunny 79 26.1 73 22.8 82 82 N N/A 30.12 1020 10 16 N/A
10:53 am 10:53 Sunny 80 26.7 74 23.3 82 82 S 3 6 30.12 1020 10 16 N/A
11:53 am 11:53 Sunny 84 28.9 75 23.9 74 74 N 5 7 30.10 1019 10 16 N/A
12:53 pm 12:53 Sunny 85 29.4 76 24.4 75 75 S 9 15 30.08 1019 10 16 N/A
1:53 pm 13:53 Partly Cloudy 88 31.1 76 24.4 68 68 WSW 10 17 30.06 1018 10 16 N/A
2:53 pm 14:53 Mostly Cloudy with Light Rain 84 28.9 78 25.6 82 82 SW 3 6 30.01 1016 10 16 0.01 0.25
3:53 pm 15:53 Mostly Cloudy 87 30.6 78 25.6 75 75 SE 5 7 30.00 1016 10 16 0.00 0.00
4:53 pm 16:53 Mostly Sunny 89 31.7 77 25 68 68 SW 6 9 29.98 1015 10 16 N/A
5:53 pm 17:53 Partly Cloudy 89 31.7 76 24.4 65 65 WSW 13 20 29.98 1015 10 16 N/A
6:53 pm 18:53 Sunny 89 31.7 76 24.4 65 65 WSW 8 13 29.97 1015 10 16 N/A
7:53 pm 19:53 Sunny 87 30.6 74 23.3 65 65 WSW 9 15 29.97 1015 10 16 N/A
8:53 pm 20:53 Cloudy 84 28.9 76 24.4 77 77 SSW 3 6 29.97 1015 10 16 N/A
9:53 pm 21:53 Cloudy 82 27.8 74 23.3 77 77 SSW 5 7 29.98 1015 10 16 N/A
10:53 pm 22:53 Cloudy 81 27.2 76 24.4 85 85 N N/A 29.99 1016 10 16 0.00 0.00
11:53 pm 23:53 Cloudy 78 25.6 76 24.4 93 93 N N/A 29.99 1016 10 16 N/A

Powered by AerisWeather